Wind_Speed
21 23 23 23 22 21 20 19 17 15 13 11 10 10 10 11 12 13 13 13 13 13 13 14 15 16 15 15 14 13 12 13 13 12 12 12 13 14 15 15 16 15 16 17 17 18 18 18 18 19 20 21 22 22 22 22 22 23 23 24 25 26 27 27 28 29 29 30 30 30 30 30 30 31
21 22 23 23 23 22 21 20 19 17 14 11 9 9 11 13 15 16 16 16 16 16 16 16 15 15 15 15 14 14 14 14 15 15 14 14 14 15 16 17 18 17 17 16 17 17 18 18 19 19 19 20 21 22 23 23 23 23 23 24 24 25 26 26 27 28 28 29 30 31 31 32 32 32
23 23 23 23 23 23 22 21 20 18 14 11 11 12 14 16 16 16 17 18 19 20 20 18 16 15 15 15 14 15 16 16 16 16 17 17 16 16 16 17 19 20 19 18 18 18 18 19 20 20 21 21 21 21 22 23 23 24 25 26 26 27 27 27 28 28 29 29 30 30 31 31 32 33
24 23 24 23 23 23 23 21 20 18 14 12 13 14 16 18 16 16 17 18 19 22 22 20 17 16 16 16 16 16 17 17 18 18 18 18 18 18 18 17 18 20 21 20 20 20 20 20 20 21 23 23 23 23 23 23 23 24 25 26 27 28 29 29 30 31 31 30 30 31 31 31 32 32
25 24 24 23 22 23 23 21 20 18 15 14 15 16 17 19 18 17 17 17 18 21 22 21 20 18 18 18 18 18 18 19 20 21 21 21 20 20 19 18 18 19 20 21 22 22 22 22 22 23 24 25 26 26 26 26 26 26 26 27 27 28 29 30 31 32 32 33 32 32 32 32 32 33
26 25 24 22 21 23 23 21 20 18 16 16 17 18 19 20 21 20 20 19 18 19 21 23 23 22 21 20 20 19 19 20 20 21 23 23 22 22 21 20 19 19 19 20 21 23 23 24 24 25 26 27 28 27 27 28 28 28 28 28 29 29 30 30 30 31 32 33 34 34 34 34 34 34
26 26 24 22 22 23 22 21 20 19 18 18 18 19 21 22 22 23 23 21 20 19 20 23 24 25 24 22 21 21 21 21 21 21 22 23 23 23 23 22 20 20 20 19 20 22 24 25 26 27 28 29 29 29 29 29 29 30 30 31 31 32 32 32 32 32 32 32 33 34 35 35 35 36
25 25 25 23 23 24 23 21 21 21 20 19 19 20 21 22 23 25 25 24 22 21 19 21 24 25 25 24 23 24 24 23 23 23 23 23 23 23 24 23 21 21 22 22 22 23 25 26 27 29 30 30 30 30 30 31 31 32 32 33 33 33 33 33 33 33 33 33 33 33 34 35 36 37
25 25 24 24 24 24 23 22 22 22 21 20 21 22 21 22 24 27 26 25 24 23 20 19 22 25 25 25 25 26 26 25 26 27 26 25 24 24 24 24 23 23 23 24 25 26 27 28 28 29 30 30 30 30 30 31 31 32 32 33 33 33 33 34 34 35 35 34 34 34 34 34 35 37
26 24 24 25 24 24 24 23 23 23 22 22 22 23 22 23 27 28 27 26 26 25 22 20 21 24 26 26 26 25 27 27 28 29 29 28 27 26 25 24 24 25 26 26 28 29 30 30 30 30 30 30 30 30 31 31 31 32 32 32 32 33 34 35 36 37 37 37 37 37 36 36 36 36
25 23 23 25 24 23 24 24 24 24 24 23 23 24 24 26 28 29 28 27 27 26 25 23 23 24 26 28 27 27 29 30 31 32 31 29 28 28 26 25 25 27 28 29 29 30 30 30 30 31 31 31 31 31 31 31 30 31 31 32 33 34 35 36 37 37 38 39 39 39 39 39 38 38
22 22 23 23 22 23 24 25 25 25 25 25 25 25 26 27 29 30 30 29 28 27 26 26 26 26 27 28 30 30 32 34 35 35 34 32 30 30 30 28 27 29 30 30 31 30 30 30 31 31 32 32 32 32 31 31 30 30 31 32 33 34 35 36 36 37 37 38 39 40 41 40 40 40
23 24 25 24 23 24 25 25 26 26 26 26 25 26 28 29 30 32 32 31 29 27 27 27 27 28 28 28 30 32 34 35 35 34 35 35 34 35 34 31 30 30 31 31 32 30 30 31 31 31 32 32 31 31 31 30 30 31 32 33 33 34 35 36 36 36 36 36 38 39 40 41 41 41
24 25 25 23 23 25 26 26 25 26 26 25 25 27 30 31 32 33 32 32 29 27 27 26 27 29 28 28 31 33 34 34 34 34 36 37 37 36 36 34 31 31 32 34 33 30 29 31 32 31 31 31 31 31 31 30 30 31 32 33 33 34 34 35 35 35 35 36 36 38 39 40 40 41
23 24 24 23 24 24 24 24 24 24 25 24 24 28 31 32 33 33 33 31 29 27 26 25 26 27 28 28 31 33 34 35 35 35 35 36 36 35 36 36 33 30 32 36 36 32 29 31 32 32 31 32 32 32 31 30 31 32 33 33 33 33 33 33 34 35 36 36 36 37 38 39 40 41
23 23 23 23 23 21 20 21 22 22 23 23 24 28 31 32 32 32 32 30 27 25 25 25 25 26 27 29 31 33 36 35 33 33 34 35 36 36 37 38 35 31 32 36 37 34 30 30 32 33 31 31 32 31 29 29 30 32 33 33 33 33 33 33 33 34 35 36 37 38 39 39 40 42
22 21 21 21 19 18 18 20 22 22 22 23 25 29 31 31 31 32 31 28 25 25 25 25 25 25 27 30 32 34 36 35 34 35 36 36 37 38 38 38 37 33 32 34 37 35 31 30 32 32 30 30 30 28 27 27 29 30 31 32 32 33 34 34 35 35 36 37 38 39 40 40 41 42
20 18 19 19 18 17 18 20 23 23 23 24 26 28 29 30 31 31 29 26 25 25 26 26 25 25 28 32 33 33 35 36 36 37 37 37 38 39 39 39 37 34 33 34 36 35 31 28 30 30 28 28 28 27 26 26 27 28 29 30 32 34 35 37 37 38 38 39 39 39 40 41 41 41
18 18 18 20 20 19 19 21 23 24 23 23 24 25 27 29 29 29 27 25 25 25 25 25 25 26 30 33 33 33 35 36 38 38 39 38 39 40 40 39 37 35 32 33 35 36 32 29 29 29 28 28 28 27 25 25 26 27 28 30 33 35 36 38 39 40 40 39 39 39 40 40 41 41
19 19 19 21 22 21 21 22 23 23 22 22 22 24 25 26 26 25 25 24 24 23 23 24 26 29 31 33 33 34 35 36 37 39 39 39 40 41 41 38 35 32 30 30 33 36 35 32 31 31 30 30 30 28 27 27 27 27 29 31 33 35 37 38 39 39 39 39 38 38 38 39 40 41
19 20 22 22 21 22 23 23 23 23 23 22 22 22 22 21 20 20 20 21 22 23 24 26 28 30 31 32 33 34 35 36 38 39 40 40 40 40 39 36 34 31 28 28 31 34 35 33 32 31 30 30 31 30 29 28 27 28 30 32 33 34 36 36 37 37 37 37 37 36 37 37 38 39
18 22 22 20 22 24 24 23 24 25 23 20 18 17 17 16 15 15 18 20 22 24 25 26 28 29 30 32 34 35 36 37 38 40 41 40 38 38 37 36 34 32 28 27 30 33 32 31 31 31 30 31 31 29 29 29 27 28 30 31 32 33 34 34 34 34 34 34 34 34 34 34 35 36
20 23 21 19 23 26 25 24 25 22 18 15 14 14 15 14 15 16 19 21 21 23 24 25 27 29 31 33 35 36 37 39 40 41 40 37 36 35 35 35 35 33 29 26 28 31 31 30 29 30 32 33 31 28 27 27 27 27 28 30 31 31 32 33 32 32 31 31 31 31 32 33 35 37
21 22 21 22 25 26 26 25 22 17 14 13 13 15 16 16 16 17 18 19 20 22 24 26 28 30 33 35 36 38 39 40 40 39 37 35 34 35 35 34 33 32 29 26 27 30 31 30 29 29 32 34 33 29 26 25 25 26 28 29 30 29 30 30 30 30 30 31 31 32 33 34 36 39
20 22 22 23 24 24 23 21 17 14 13 14 15 16 16 16 16 16 17 19 21 23 25 27 30 32 34 35 37 38 38 38 37 35 34 34 34 34 33 31 31 30 28 26 27 30 32 32 31 31 32 33 33 32 30 27 24 24 27 29 30 29 29 29 30 30 31 31 32 33 34 35 36 39
19 20 20 20 21 20 19 17 14 14 14 14 15 15 15 15 16 17 18 20 22 25 27 30 32 33 34 35 35 35 35 34 32 32 31 31 31 30 29 29 29 30 28 26 28 31 33 33 32 33 33 33 32 33 33 30 25 23 25 27 29 29 28 29 30 30 30 31 32 33 34 35 36 38
17 17 17 18 18 17 16 14 13 13 13 14 14 15 15 16 17 18 20 22 24 27 29 31 32 32 32 33 32 32 31 29 28 27 27 27 27 27 26 27 28 30 29 28 28 31 33 33 32 32 33 34 33 32 33 32 29 26 25 26 27 28 28 29 30 30 31 32 33 34 35 36 37 39
15 15 15 16 16 15 14 13 12 12 12 13 14 15 16 16 17 19 21 23 25 27 28 28 29 30 30 29 28 27 26 26 25 25 25 25 26 26 26 26 27 29 29 29 29 30 32 32 31 31 32 33 34 34 33 33 32 30 29 28 28 26 26 28 30 30 32 34 35 36 37 38 39 41
13 14 15 15 14 14 13 12 11 11 13 14 14 15 16 17 18 20 22 24 24 24 25 26 27 27 26 24 23 23 23 23 24 24 24 24 26 27 26 25 26 27 28 29 30 31 31 31 30 31 31 32 34 36 36 36 34 32 31 31 31 28 27 28 30 31 33 35 37 38 39 40 40 42
13 14 14 14 13 12 12 11 11 12 13 14 14 14 16 18 20 21 21 22 22 22 22 24 24 23 22 20 20 21 21 22 23 24 24 24 25 26 26 24 23 24 26 28 30 30 30 30 30 31 32 33 34 36 37 37 36 33 31 33 34 32 30 30 32 33 35 36 37 37 38 39 41 43
14 14 14 12 12 12 11 11 12 13 15 15 14 15 17 19 20 20 19 19 20 20 21 21 22 22 21 21 20 21 21 21 21 22 23 23 23 23 24 23 21 21 24 26 29 29 29 29 30 31 33 34 34 35 36 36 35 34 32 33 35 35 34 34 35 35 36 38 39 38 38 40 42 44
15 14 13 13 12 12 12 13 14 15 15 15 15 16 18 20 19 18 17 18 19 19 19 20 21 21 21 21 21 20 20 20 20 21 23 23 23 22 22 22 22 22 22 24 25 27 28 29 30 31 32 33 33 33 33 33 33 34 34 34 35 36 35 36 37 37 38 40 40 39 40 42 44 45
15 14 13 13 13 14 14 15 15 15 15 14 15 17 19 20 18 17 17 18 18 18 18 19 21 21 21 21 22 22 22 22 22 23 23 23 23 23 23 23 24 24 24 23 24 25 26 27 29 29 30 30 31 31 32 32 31 32 33 34 35 36 36 36 38 39 39 40 41 41 42 44 45 46
14 13 13 14 14 15 15 15 15 15 15 15 17 19 20 19 18 17 18 18 18 18 18 19 21 22 22 22 23 25 26 25 24 24 24 24 24 24 24 24 25 25 26 25 24 25 26 26 27 27 27 27 27 26 28 31 31 31 32 34 35 36 37 37 38 37 37 39 42 45 47 48 48 46
13 13 14 15 15 16 16 16 15 15 15 16 18 20 20 19 18 18 18 18 18 19 19 19 20 21 22 23 25 26 26 26 25 24 24 24 24 24 25 25 25 25 26 26 25 25 25 25 26 26 26 26 25 23 22 25 28 30 31 32 34 35 37 37 37 36 36 38 43 48 51 51 49 42
13 14 15 16 16 17 17 16 15 15 16 17 19 21 20 20 19 19 19 18 18 19 19 20 21 22 23 25 26 26 26 25 24 24 23 23 24 24 24 25 25 25 25 25 25 25 25 25 25 26 26 27 28 25 22 21 24 28 31 32 33 35 37 38 36 35 36 38 43 49 52 52 47 38
14 15 16 17 17 18 17 16 15 15 16 18 19 20 19 19 19 20 20 20 19 20 21 22 23 24 25 26 26 25 25 24 23 23 22 22 23 23 24 24 24 24 24 23 23 24 24 24 25 26 27 28 29 30 26 22 21 24 29 33 35 35 37 38 37 36 37 40 45 50 51 49 43 35
15 16 16 17 18 17 16 15 15 16 17 18 18 18 18 18 19 20 21 21 21 21 22 22 23 24 24 24 25 24 23 23 23 22 21 21 22 23 23 23 23 22 22 21 21 22 23 24 24 25 27 29 30 31 30 27 24 23 26 32 35 36 37 38 39 39 40 43 48 51 49 46 41 33
15 16 16 17 17 16 15 16 16 17 17 18 18 18 18 18 20 21 21 21 21 21 21 22 22 22 23 23 23 22 22 21 21 20 20 21 21 22 23 22 22 21 21 21 21 21 22 23 24 25 27 28 29 30 31 30 28 26 26 29 33 36 37 39 41 42 44 48 52 51 47 43 37 30
15 16 16 16 16 16 15 16 16 16 17 17 17 18 18 19 20 21 21 21 20 20 20 21 21 21 22 22 22 22 21 20 19 19 19 20 20 21 22 21 21 21 21 21 21 21 21 22 23 25 26 28 29 29 29 30 29 28 26 26 29 34 38 40 43 46 48 52 54 52 48 44 35 24
16 16 17 17 16 15 15 15 16 16 16 16 16 16 17 18 20 20 19 19 19 19 19 19 20 20 21 22 21 21 20 19 19 19 19 19 20 20 21 21 21 21 21 21 21 21 21 22 23 25 26 28 28 28 28 29 29 27 24 23 26 32 37 40 43 46 50 54 54 52 49 45 36 22
17 17 17 17 16 15 15 15 15 16 15 15 15 15 17 18 19 19 18 17 17 18 18 18 19 20 21 21 21 20 19 18 18 18 18 19 19 19 20 20 20 20 21 21 21 21 22 23 24 25 26 26 27 27 28 29 29 28 26 26 28 31 34 37 39 43 48 52 53 51 49 47 38 23
18 18 18 17 16 15 15 15 16 16 15 14 15 16 17 18 18 17 17 16 16 17 17 17 18 20 21 22 21 20 18 17 17 17 17 18 19 19 19 19 19 19 20 20 21 22 23 23 24 25 25 25 25 27 27 28 28 28 29 30 31 32 34 34 35 39 44 47 49 49 48 46 39 27
18 18 18 18 16 15 15 16 16 16 16 15 16 17 18 18 17 16 15 16 16 16 17 17 18 20 21 21 20 18 17 16 16 16 16 17 18 19 19 19 18 18 19 19 20 22 22 23 23 24 24 25 25 26 27 27 28 28 29 31 34 36 35 34 36 38 40 42 44 45 45 43 37 27
18 18 18 17 15 14 15 16 17 16 16 16 17 17 17 17 16 15 15 16 16 17 18 18 19 20 21 20 19 17 16 15 15 15 16 17 18 18 19 18 17 17 17 19 20 21 22 22 23 23 23 24 25 27 27 27 28 30 31 33 35 36 35 35 38 40 40 40 42 43 45 44 36 25
Wind_Direction
343 342 342 344 346 347 350 350 348 345 340 331 321 314 313 316 313 305 295 285 280 278 278 281 285 288 289 289 290 295 299 301 302 302 300 300 301 301 300 298 293 287 281 278 278 279 280 281 282 281 278 275 273 272 271 269 267 266 264 264 264 264 264 262 260 259 258 257 257 257 257 257 257 258
337 337 338 338 338 338 340 342 344 344 338 332 326 318 313 313 312 309 306 298 290 286 285 285 283 281 281 282 285 290 294 297 297 296 294 293 294 296 299 299 295 291 285 281 281 283 285 288 288 288 285 281 276 273 271 269 267 265 264 264 263 263 263 263 263 262 260 259 258 257 256 256 256 257
330 331 332 332 332 331 332 334 338 340 337 325 316 314 312 312 309 306 306 303 297 292 291 288 282 275 272 273 279 284 288 292 293 294 293 291 290 293 296 295 293 292 290 288 287 287 288 288 289 289 288 285 281 277 274 271 268 266 264 264 264 264 263 263 262 261 261 261 260 260 258 257 256 256
323 326 327 326 325 325 326 327 330 333 329 311 302 304 310 312 308 301 300 301 297 293 291 286 277 269 266 267 274 280 285 291 294 296 295 291 291 292 293 292 289 288 288 288 289 288 288 287 287 287 286 285 284 282 280 277 275 272 270 267 266 265 264 264 263 262 261 260 259 260 260 259 258 257
319 321 322 321 319 319 319 320 323 324 316 300 293 295 304 310 308 302 299 298 295 292 287 281 274 268 264 266 271 276 282 289 294 296 296 293 292 292 292 292 291 288 287 287 288 289 288 288 287 286 284 283 282 281 280 279 278 278 277 276 273 271 268 266 264 264 263 262 260 259 259 259 258 258
318 317 318 317 315 313 313 313 315 315 307 297 292 292 298 304 306 307 305 298 293 290 285 281 276 271 270 271 274 279 284 288 292 293 294 294 294 294 294 293 291 288 286 286 288 289 289 288 287 285 283 281 279 278 277 276 276 276 277 277 277 276 274 271 269 266 265 264 262 261 260 259 259 258
314 313 313 312 311 308 307 307 308 307 302 296 289 286 291 297 303 309 310 302 293 289 285 281 277 274 274 277 279 283 287 289 290 291 292 292 293 294 295 294 291 288 285 285 284 284 284 284 283 283 282 280 278 276 274 273 273 274 275 276 276 275 274 273 272 271 269 266 264 262 260 260 260 259
306 306 306 305 304 302 301 301 301 300 298 292 283 279 285 294 300 306 310 305 295 289 285 280 277 275 275 277 279 282 286 290 292 292 293 292 292 294 295 294 292 289 287 287 284 281 279 278 279 280 280 279 277 276 275 274 273 274 274 275 275 275 274 274 273 273 271 269 268 265 262 259 259 259
297 298 298 296 294 294 295 295 294 293 292 288 280 277 282 291 297 301 307 307 296 289 285 281 280 279 277 276 277 281 285 290 293 294 293 292 292 292 293 292 291 289 288 287 286 283 281 280 280 278 277 275 275 275 275 275 275 274 273 273 273 274 274 274 273 273 272 272 271 269 267 264 260 258
297 295 290 288 288 287 288 289 288 289 289 286 281 278 280 287 293 299 304 305 296 288 286 286 284 281 277 277 278 281 286 292 295 295 293 291 291 290 290 291 291 290 288 286 285 285 284 284 282 279 276 275 276 277 276 275 273 272 271 271 271 272 271 271 271 271 271 272 272 271 269 268 265 262
300 294 287 285 284 281 281 282 283 285 286 282 278 277 278 283 290 296 300 300 294 287 286 286 281 276 276 279 281 282 286 292 296 296 293 292 291 291 292 293 292 289 288 286 286 286 286 285 282 279 277 278 280 280 278 275 272 269 268 269 269 270 270 270 270 269 269 270 270 271 270 269 268 266
299 294 289 286 282 278 277 277 279 282 283 281 278 275 274 278 286 292 296 297 292 283 280 281 279 278 280 282 282 283 286 291 295 295 293 292 293 293 294 293 291 289 288 287 287 287 287 286 283 281 281 282 282 281 279 277 274 271 269 269 270 271 271 271 271 270 269 268 268 268 268 268 267 266
294 292 289 289 288 282 277 276 276 278 280 281 278 272 269 275 284 289 292 294 289 279 274 277 280 282 284 285 286 287 289 293 295 294 292 291 292 292 292 291 290 291 290 288 287 288 291 289 286 284 284 284 284 283 281 279 276 274 273 272 272 272 273 274 273 272 269 267 266 265 265 265 265 265
287 285 286 291 291 283 277 278 278 278 279 280 275 270 269 274 281 286 289 292 288 277 272 275 279 283 286 289 291 292 293 293 293 292 292 292 293 291 289 288 290 294 294 290 289 293 294 291 288 287 286 286 286 284 283 281 279 276 275 274 274 275 275 275 274 272 270 267 265 264 263 263 262 262
282 283 287 291 288 282 278 278 277 275 276 276 270 267 269 273 278 283 288 289 283 275 273 276 280 285 289 292 293 294 294 292 290 290 292 293 292 290 288 289 293 295 293 291 292 294 293 290 288 286 286 286 286 285 285 284 281 278 276 275 275 275 275 274 272 271 270 269 267 265 263 262 262 261
284 287 291 293 289 285 280 275 272 271 271 269 264 263 267 271 275 281 285 283 276 273 275 278 281 285 288 290 293 295 294 292 289 289 290 291 291 292 293 295 297 297 293 291 292 292 292 290 286 285 285 284 283 284 285 284 281 279 277 276 275 275 275 273 271 270 270 270 269 268 266 265 263 262
289 288 291 293 288 283 278 271 268 266 262 259 257 260 264 269 274 279 280 277 273 272 274 276 278 281 285 289 293 294 293 291 290 289 290 292 294 295 296 297 298 299 296 293 292 292 291 288 284 283 284 284 284 286 286 284 282 280 279 278 277 276 275 274 273 273 272 272 272 271 270 269 267 266
289 287 288 288 282 280 281 277 270 263 255 253 256 261 266 271 275 277 276 273 273 274 274 276 279 281 286 290 293 292 291 291 291 292 293 294 296 296 297 298 301 301 299 296 293 292 290 286 284 285 287 287 286 286 286 285 283 281 279 277 275 272 271 272 272 273 272 272 272 272 271 270 269 267
283 283 284 281 277 280 287 284 275 265 257 256 260 265 270 273 276 276 274 273 273 272 274 278 281 285 288 291 291 291 290 291 293 294 295 297 298 298 298 300 302 301 300 299 297 296 297 296 294 294 294 292 290 290 291 291 287 283 280 277 274 271 270 270 271 271 272 271 270 269 269 268 268 267
275 278 279 276 276 285 294 289 277 267 261 262 266 269 271 274 275 275 274 272 272 273 275 279 282 286 290 291 291 291 291 292 294 295 297 299 299 299 300 301 300 300 300 300 299 298 299 300 299 299 298 296 296 297 298 295 290 287 282 278 275 272 271 270 270 270 270 270 269 267 267 266 265 264
276 277 276 272 272 282 289 284 274 267 264 264 268 270 270 269 271 272 272 272 275 278 281 283 286 289 291 292 292 292 293 294 295 296 297 299 300 300 300 300 300 299 300 300 297 295 296 297 298 298 298 296 296 297 296 293 290 286 281 278 276 274 272 271 270 270 269 269 269 268 267 266 266 265
272 273 272 266 266 276 281 275 269 267 266 268 268 264 261 263 268 271 270 271 275 280 284 287 289 291 291 292 292 293 293 294 295 296 298 300 300 300 299 299 299 299 300 299 294 291 292 294 295 296 294 291 291 293 293 291 288 285 281 279 278 276 275 274 273 271 271 270 270 270 270 270 269 269
262 265 264 259 266 277 282 276 271 268 267 265 258 254 256 262 266 267 268 272 278 283 287 290 291 292 292 292 292 293 293 295 296 297 299 300 299 297 297 298 299 299 300 297 292 289 290 291 293 294 293 291 290 291 291 290 289 288 285 283 281 279 278 276 275 274 273 273 272 272 271 271 270 270
259 259 259 259 267 277 279 274 268 261 256 252 250 256 264 266 266 268 273 279 284 286 288 290 291 292 292 292 292 293 294 295 296 296 296 295 294 295 296 298 299 298 297 296 292 291 292 293 295 297 296 295 296 296 294 294 296 296 292 289 286 282 278 276 275 275 274 273 272 271 270 269 270 270
258 258 260 261 267 272 269 262 254 248 248 252 258 264 268 269 273 279 283 286 287 288 290 292 293 293 293 293 293 294 294 294 293 292 291 291 291 293 296 297 296 295 296 298 297 295 295 298 300 300 298 298 300 301 301 300 301 299 295 293 289 283 279 276 274 273 272 271 270 269 269 269 270 272
259 261 262 262 262 260 253 246 243 246 252 258 262 267 271 277 284 287 289 291 293 294 295 296 295 295 295 294 294 294 294 294 293 291 290 289 290 292 294 295 295 295 297 300 300 299 299 301 303 302 300 300 301 301 301 302 302 300 296 291 286 282 279 277 275 273 273 272 271 271 272 273 274 276
262 262 259 256 252 246 241 241 244 249 254 258 263 269 277 284 289 293 297 299 299 298 297 297 296 296 295 295 296 296 296 295 294 292 291 291 291 292 293 295 297 298 300 300 300 299 299 300 301 300 298 299 300 301 301 303 305 305 299 291 284 282 281 279 278 278 278 278 277 277 277 278 279 281
261 256 249 243 240 239 241 243 244 247 252 259 266 275 282 289 295 299 302 302 300 299 298 297 296 296 297 298 299 299 297 294 293 293 292 292 293 293 295 297 297 297 299 300 299 298 297 297 297 296 297 299 302 303 304 306 307 307 303 295 290 288 287 285 285 285 285 285 285 285 285 285 285 285
251 241 235 234 238 243 245 243 244 250 258 266 273 281 288 294 298 300 300 300 300 300 299 299 299 300 301 302 301 298 296 293 292 292 292 293 294 294 295 295 295 295 297 298 298 297 295 296 296 297 299 302 304 305 305 306 306 307 305 302 299 298 296 294 293 293 293 292 291 291 291 290 289 289
232 225 228 235 243 247 247 247 253 263 270 276 283 289 294 297 298 298 299 299 299 300 301 302 303 304 303 300 296 294 293 292 293 294 294 294 293 292 292 292 293 295 297 298 297 296 296 296 298 299 301 302 303 303 303 304 305 307 307 305 303 303 302 300 299 299 298 296 296 296 294 292 292 293
220 223 233 244 250 251 253 259 269 276 280 285 292 295 297 298 297 297 298 297 298 302 306 307 309 309 305 298 293 291 290 291 294 296 297 299 298 296 295 294 295 297 298 297 297 296 296 296 297 299 300 300 300 300 301 303 306 308 307 306 304 304 305 304 303 301 300 300 300 299 297 294 295 297
225 232 242 251 256 260 266 274 280 284 287 292 297 298 299 299 297 296 297 297 301 307 311 312 313 313 309 302 297 296 295 297 300 303 305 307 307 306 303 302 303 304 301 297 295 295 295 297 297 297 297 298 299 301 302 305 307 307 307 306 304 304 305 305 304 304 304 303 302 300 297 297 299 302
234 241 249 257 263 270 277 282 285 288 293 298 299 300 300 299 297 296 297 300 305 310 313 315 316 315 312 310 309 310 311 311 312 312 312 313 313 312 311 311 310 309 305 302 299 297 297 297 297 296 297 298 302 306 307 307 307 306 306 305 304 303 304 305 305 307 308 307 305 303 302 303 306 307
241 249 258 265 271 277 283 287 290 294 299 300 300 300 300 298 296 296 299 304 308 311 314 316 314 312 313 315 316 316 316 314 313 313 313 314 315 315 315 313 311 309 307 307 306 304 302 300 298 297 299 301 305 308 307 305 306 307 306 305 304 305 305 307 308 309 310 310 310 311 310 310 312 310
251 259 266 271 277 283 288 292 295 298 300 300 299 299 299 298 297 299 303 308 310 309 309 308 306 308 311 313 313 313 313 312 312 312 314 315 316 316 315 313 311 310 310 311 310 308 306 303 302 301 302 303 304 305 303 303 305 307 306 305 306 307 308 310 311 311 312 313 315 316 316 315 314 311
258 265 271 276 281 285 289 292 294 296 297 296 296 298 300 301 303 305 307 307 306 305 306 306 308 311 311 310 310 311 311 310 310 312 314 316 315 314 313 312 311 312 313 313 312 310 308 307 307 307 307 307 307 308 308 308 311 311 309 308 308 310 311 313 314 314 315 317 320 321 320 318 317 313
263 270 275 279 282 285 288 292 294 294 293 291 292 295 299 302 305 306 306 306 307 309 312 313 314 313 311 309 309 310 310 310 310 311 313 314 314 312 312 311 312 313 313 313 312 312 311 312 312 311 311 311 311 313 315 317 319 317 313 311 312 314 316 316 316 317 319 322 325 325 323 322 321 316
270 275 277 279 281 285 289 292 292 291 291 292 295 298 301 303 305 305 305 308 312 315 314 313 312 311 310 309 309 310 309 309 310 312 315 315 314 313 312 313 313 314 315 316 316 315 315 315 315 314 313 314 315 316 318 322 325 323 318 316 316 316 317 318 319 320 324 327 328 328 327 327 326 317
275 276 276 278 283 288 293 294 293 295 298 302 304 305 306 307 306 305 306 310 312 313 311 310 310 310 310 310 309 308 308 308 310 314 316 315 314 313 314 315 316 317 319 320 319 318 317 317 317 316 316 317 319 321 322 325 328 328 324 320 317 318 320 322 323 324 327 329 330 329 330 331 329 315
275 276 277 281 287 294 296 296 297 301 302 302 303 303 304 304 302 301 304 306 308 308 308 308 309 310 310 310 309 308 307 309 313 317 317 315 314 314 315 317 319 321 323 323 321 321 321 320 319 319 321 322 322 324 325 326 326 326 323 319 319 323 326 327 327 327 328 329 331 332 332 334 332 314
278 278 280 283 289 294 295 295 299 300 299 297 296 295 295 294 293 296 300 302 303 305 305 306 309 310 310 309 308 307 308 311 316 317 316 316 316 315 316 319 321 322 323 324 324 324 323 323 324 326 327 326 325 326 326 324 323 324 323 323 324 328 330 331 329 328 329 330 332 335 335 335 334 319
279 279 281 285 290 294 294 294 295 295 293 292 291 288 287 287 289 293 298 299 300 302 303 305 308 308 307 307 306 306 310 314 315 315 314 315 315 315 317 321 322 322 323 325 326 326 326 328 331 332 331 328 327 327 326 324 325 327 327 326 327 329 331 332 330 330 331 332 334 337 338 337 335 326
280 281 284 289 293 294 292 290 289 289 290 291 287 284 282 282 285 290 293 294 297 300 301 304 304 303 304 306 307 308 311 312 312 313 314 314 315 316 319 321 321 322 324 327 328 328 329 333 335 334 332 331 329 328 327 327 328 328 327 328 330 332 333 332 332 333 336 336 336 338 340 339 337 330
282 285 290 292 292 290 285 283 285 288 290 288 283 278 277 279 283 288 290 293 297 299 300 301 300 300 302 306 306 307 308 309 310 313 313 314 315 317 319 321 321 323 325 327 328 329 332 336 337 335 334 334 332 331 330 331 331 330 331 333 335 335 335 334 335 338 341 341 339 339 341 342 339 329
284 289 290 287 283 278 276 279 284 287 287 283 277 274 276 280 284 288 292 295 297 296 296 296 295 298 302 304 304 304 305 308 310 312 313 314 315 316 318 319 321 323 326 327 328 331 336 339 339 337 335 334 334 334 337 338 338 337 338 338 338 337 338 339 341 343 346 348 346 343 342 344 343 333
Height
3200 3199 3198 3198 3198 3197 3197 3197 3196 3195 3195 3194 3193 3193 3192 3192 3191 3190 3189 3189 3188 3188 3187 3187 3186 3185 3185 3184 3184 3183 3183 3182 3181 3180 3180 3179 3178 3177 3176 3176 3175 3175 3174 3174 3173 3173 3172 3172 3171 3171 3171 3170 3170 3170 3169 3169 3168 3168 3168 3168 3167 3167 3167 3167 3167 3168 3168 3168 3168 3169 3169 3169 3170 3171
3198 3198 3197 3196 3196 3195 3195 3194 3194 3193 3193 3192 3192 3192 3192 3191 3191 3190 3189 3188 3187 3186 3186 3185 3185 3184 3183 3183 3182 3181 3181 3180 3179 3178 3178 3177 3177 3175 3174 3173 3172 3171 3171 3171 3170 3169 3169 3168 3167 3167 3167 3167 3167 3167 3167 3166 3166 3165 3165 3165 3164 3164 3164 3164 3164 3164 3164 3164 3164 3165 3165 3165 3165 3166
3196 3196 3195 3194 3194 3193 3192 3192 3191 3191 3190 3191 3190 3190 3190 3189 3189 3188 3188 3187 3186 3184 3183 3183 3183 3183 3181 3181 3180 3179 3179 3178 3177 3177 3176 3175 3174 3174 3173 3171 3170 3168 3168 3167 3167 3166 3165 3165 3164 3164 3164 3164 3163 3163 3163 3163 3162 3162 3162 3161 3161 3161 3161 3160 3160 3160 3160 3160 3160 3161 3161 3161 3161 3162
3194 3194 3193 3192 3191 3191 3190 3189 3189 3188 3188 3188 3188 3187 3187 3187 3187 3187 3186 3186 3185 3183 3181 3181 3180 3180 3179 3179 3178 3177 3176 3175 3174 3174 3173 3173 3172 3171 3170 3169 3168 3167 3165 3164 3164 3163 3163 3162 3161 3161 3160 3160 3159 3159 3159 3158 3158 3158 3158 3157 3157 3157 3157 3156 3156 3156 3156 3156 3156 3156 3157 3157 3157 3157
3192 3191 3191 3190 3189 3188 3188 3187 3187 3186 3186 3185 3185 3184 3184 3184 3184 3184 3183 3183 3183 3181 3180 3179 3178 3177 3177 3176 3176 3175 3174 3173 3172 3171 3170 3170 3169 3168 3168 3167 3166 3165 3163 3162 3161 3160 3160 3159 3159 3158 3157 3157 3156 3155 3155 3154 3154 3153 3153 3153 3153 3153 3153 3152 3152 3152 3152 3152 3152 3152 3152 3152 3153 3153
3189 3188 3188 3188 3187 3186 3185 3185 3185 3184 3183 3182 3182 3182 3181 3181 3180 3180 3180 3180 3180 3179 3178 3177 3176 3175 3174 3174 3173 3173 3173 3172 3171 3169 3168 3167 3166 3165 3165 3164 3163 3162 3161 3160 3158 3157 3157 3156 3155 3155 3154 3154 3153 3152 3151 3150 3150 3149 3149 3148 3148 3148 3148 3148 3148 3148 3147 3147 3147 3147 3148 3148 3148 3148
3186 3185 3185 3185 3184 3184 3183 3183 3182 3181 3181 3180 3180 3179 3179 3179 3178 3177 3177 3177 3176 3176 3175 3175 3174 3172 3172 3172 3171 3170 3170 3170 3169 3168 3166 3165 3163 3162 3161 3161 3160 3159 3158 3157 3156 3155 3154 3153 3152 3151 3151 3150 3149 3148 3148 3147 3146 3145 3145 3144 3144 3144 3143 3143 3143 3143 3143 3143 3142 3142 3143 3143 3143 3143
3183 3182 3182 3182 3181 3180 3180 3180 3180 3179 3178 3178 3178 3177 3176 3176 3175 3174 3174 3173 3173 3173 3173 3172 3172 3171 3170 3170 3169 3167 3167 3166 3166 3165 3164 3162 3161 3160 3159 3158 3157 3155 3154 3153 3152 3152 3151 3150 3149 3148 3147 3146 3145 3144 3143 3142 3142 3141 3141 3140 3139 3139 3139 3138 3138 3138 3138 3138 3137 3137 3138 3138 3138 3138
3179 3179 3178 3178 3177 3176 3176 3177 3176 3176 3175 3175 3175 3174 3173 3173 3172 3171 3171 3170 3170 3169 3170 3170 3169 3169 3168 3167 3166 3164 3163 3163 3162 3161 3160 3159 3158 3157 3156 3155 3153 3152 3150 3149 3148 3147 3147 3146 3145 3144 3143 3142 3141 3140 3139 3138 3137 3137 3136 3136 3136 3135 3135 3134 3134 3133 3132 3132 3132 3132 3132 3132 3133 3133
3176 3175 3175 3174 3173 3173 3172 3173 3172 3172 3172 3172 3171 3171 3171 3170 3169 3168 3168 3167 3166 3166 3166 3166 3166 3166 3165 3164 3164 3162 3160 3159 3159 3158 3157 3156 3155 3153 3153 3152 3150 3148 3147 3146 3144 3143 3142 3142 3141 3140 3138 3137 3136 3135 3134 3134 3133 3133 3132 3132 3132 3131 3131 3130 3129 3129 3128 3127 3127 3126 3127 3127 3127 3127
3172 3171 3171 3171 3170 3169 3169 3169 3169 3169 3169 3169 3169 3169 3168 3167 3167 3166 3165 3163 3162 3162 3162 3162 3162 3162 3162 3161 3161 3160 3158 3156 3155 3154 3153 3153 3152 3149 3148 3148 3146 3144 3142 3142 3141 3139 3138 3138 3136 3135 3133 3132 3131 3130 3130 3129 3129 3129 3129 3128 3128 3127 3126 3125 3124 3124 3123 3122 3121 3121 3121 3121 3121 3121
3168 3167 3167 3167 3167 3166 3166 3166 3166 3166 3166 3166 3167 3166 3166 3165 3164 3163 3162 3161 3159 3159 3158 3159 3159 3158 3158 3158 3158 3157 3155 3153 3152 3151 3149 3149 3148 3146 3144 3143 3142 3140 3138 3137 3136 3135 3135 3133 3132 3130 3128 3127 3126 3125 3125 3125 3125 3125 3124 3124 3123 3122 3121 3120 3119 3118 3117 3117 3116 3116 3115 3115 3115 3115
3165 3164 3163 3163 3163 3163 3162 3163 3163 3163 3163 3163 3163 3163 3162 3161 3160 3160 3159 3157 3156 3155 3155 3155 3155 3155 3155 3155 3154 3153 3151 3150 3148 3147 3144 3143 3143 3141 3139 3138 3137 3136 3134 3132 3131 3131 3130 3129 3127 3125 3123 3122 3121 3120 3120 3120 3120 3119 3119 3118 3117 3116 3115 3114 3113 3112 3112 3111 3110 3110 3110 3110 3110 3110
3162 3161 3160 3160 3159 3159 3158 3159 3159 3159 3159 3159 3159 3159 3159 3158 3157 3156 3155 3154 3153 3152 3151 3151 3151 3151 3151 3152 3150 3148 3147 3146 3144 3142 3140 3138 3137 3136 3134 3133 3133 3133 3129 3126 3125 3126 3126 3123 3121 3119 3118 3117 3116 3115 3115 3115 3115 3114 3113 3112 3111 3110 3109 3108 3107 3106 3106 3105 3105 3105 3104 3104 3104 3104
3158 3158 3157 3156 3156 3155 3155 3155 3155 3155 3155 3155 3155 3155 3155 3154 3153 3152 3151 3150 3149 3148 3148 3148 3148 3147 3147 3148 3146 3144 3143 3141 3140 3138 3136 3134 3133 3131 3129 3127 3129 3130 3126 3120 3119 3122 3122 3119 3116 3114 3113 3112 3111 3111 3111 3110 3109 3108 3107 3106 3105 3105 3104 3103 3102 3101 3100 3099 3099 3099 3099 3099 3098 3098
3154 3153 3153 3152 3152 3152 3152 3152 3152 3151 3151 3151 3152 3151 3150 3150 3149 3148 3147 3146 3145 3145 3144 3144 3144 3144 3143 3143 3143 3141 3138 3136 3135 3134 3132 3131 3128 3126 3125 3123 3123 3124 3122 3117 3115 3116 3117 3115 3111 3109 3109 3108 3107 3107 3107 3106 3104 3103 3102 3101 3100 3099 3098 3097 3097 3096 3095 3094 3093 3093 3092 3093 3092 3092
3150 3149 3149 3148 3148 3148 3149 3148 3148 3147 3147 3147 3147 3147 3146 3146 3146 3145 3144 3143 3142 3141 3141 3140 3141 3141 3140 3139 3138 3137 3134 3132 3131 3130 3128 3127 3124 3122 3120 3118 3118 3119 3117 3113 3110 3110 3112 3110 3107 3105 3105 3104 3103 3103 3102 3101 3099 3097 3096 3095 3094 3093 3092 3091 3091 3090 3089 3088 3088 3087 3087 3087 3087 3087
3145 3145 3145 3145 3145 3145 3145 3145 3145 3144 3143 3143 3143 3143 3143 3143 3143 3142 3141 3140 3139 3138 3138 3137 3137 3138 3136 3134 3134 3132 3130 3128 3126 3125 3123 3122 3120 3117 3116 3114 3114 3113 3112 3108 3105 3104 3105 3105 3103 3101 3101 3099 3098 3098 3097 3096 3094 3092 3091 3090 3088 3087 3086 3085 3084 3084 3083 3083 3083 3082 3082 3082 3082 3082
3142 3142 3142 3142 3142 3142 3142 3141 3140 3140 3139 3139 3139 3140 3140 3140 3140 3139 3138 3137 3136 3135 3135 3134 3134 3134 3132 3131 3129 3128 3127 3125 3122 3120 3118 3117 3116 3113 3111 3110 3110 3108 3107 3104 3099 3096 3097 3098 3096 3095 3094 3093 3092 3092 3092 3091 3089 3087 3086 3084 3083 3081 3080 3079 3079 3078 3078 3078 3078 3077 3077 3076 3076 3076
3139 3139 3138 3138 3138 3137 3137 3136 3136 3136 3136 3136 3137 3137 3137 3137 3136 3136 3135 3134 3133 3132 3132 3131 3130 3129 3128 3127 3126 3124 3123 3121 3119 3116 3114 3112 3110 3108 3106 3106 3105 3104 3103 3100 3095 3091 3090 3090 3089 3089 3088 3087 3086 3087 3087 3085 3084 3083 3081 3079 3078 3077 3076 3075 3074 3074 3073 3072 3072 3072 3071 3071 3070 3070
3135 3135 3135 3134 3134 3134 3134 3133 3133 3133 3133 3133 3134 3134 3134 3133 3133 3133 3132 3131 3130 3129 3128 3127 3126 3125 3124 3123 3122 3120 3118 3116 3114 3111 3109 3108 3106 3103 3101 3100 3100 3099 3098 3096 3092 3088 3086 3086 3085 3084 3084 3083 3082 3082 3082 3081 3080 3078 3076 3074 3073 3072 3071 3070 3069 3068 3067 3067 3066 3066 3065 3065 3064 3063
3132 3132 3131 3132 3132 3132 3131 3130 3130 3130 3130 3130 3131 3130 3130 3130 3130 3130 3129 3128 3127 3126 3125 3124 3123 3122 3121 3119 3118 3116 3114 3112 3109 3107 3105 3104 3102 3099 3097 3095 3094 3093 3094 3093 3089 3085 3084 3083 3082 3081 3080 3079 3079 3079 3077 3076 3076 3074 3072 3070 3068 3067 3066 3065 3063 3062 3062 3061 3060 3060 3059 3059 3058 3057
3127 3128 3128 3129 3129 3128 3128 3127 3127 3127 3127 3128 3128 3127 3127 3127 3128 3127 3126 3125 3125 3124 3122 3121 3120 3119 3117 3116 3113 3111 3109 3107 3105 3103 3101 3099 3097 3095 3093 3091 3089 3088 3089 3089 3085 3081 3080 3080 3080 3078 3075 3074 3075 3076 3074 3072 3071 3070 3067 3065 3064 3062 3061 3059 3058 3057 3056 3056 3056 3055 3055 3054 3053 3051
3123 3124 3125 3126 3126 3125 3125 3124 3124 3124 3125 3125 3125 3125 3125 3125 3125 3124 3123 3123 3122 3121 3120 3118 3117 3116 3114 3112 3109 3107 3105 3103 3100 3098 3096 3094 3092 3090 3088 3087 3085 3084 3084 3084 3082 3078 3076 3076 3076 3075 3072 3068 3068 3069 3069 3069 3067 3065 3062 3060 3059 3057 3056 3054 3053 3052 3052 3051 3051 3050 3050 3049 3048 3045
3120 3120 3121 3121 3121 3121 3121 3121 3122 3122 3123 3122 3122 3122 3122 3122 3122 3121 3121 3120 3119 3118 3116 3115 3114 3112 3110 3108 3105 3103 3101 3098 3096 3094 3092 3090 3088 3087 3085 3083 3082 3080 3080 3080 3077 3074 3072 3071 3071 3070 3068 3065 3063 3062 3062 3063 3063 3061 3058 3055 3053 3052 3051 3050 3048 3048 3047 3047 3046 3045 3044 3043 3042 3040
3116 3116 3117 3117 3117 3118 3118 3119 3120 3120 3120 3120 3120 3120 3119 3119 3118 3118 3117 3116 3115 3114 3112 3111 3110 3108 3106 3103 3101 3099 3096 3094 3092 3090 3089 3087 3085 3084 3082 3080 3078 3076 3076 3076 3073 3070 3067 3066 3066 3064 3062 3061 3060 3058 3056 3056 3058 3057 3055 3051 3049 3047 3046 3045 3043 3043 3042 3041 3040 3039 3038 3036 3035 3033
3113 3113 3114 3114 3114 3115 3116 3117 3117 3118 3117 3117 3117 3117 3116 3116 3115 3114 3114 3112 3111 3110 3109 3107 3105 3103 3101 3099 3096 3094 3092 3090 3089 3087 3085 3084 3082 3081 3080 3078 3075 3073 3072 3071 3070 3067 3064 3063 3063 3061 3058 3056 3055 3054 3052 3051 3051 3051 3050 3048 3045 3043 3042 3040 3038 3037 3036 3035 3033 3032 3031 3029 3028 3026
3111 3111 3111 3111 3112 3113 3114 3115 3115 3115 3115 3115 3115 3114 3113 3113 3112 3111 3110 3109 3108 3106 3105 3103 3101 3098 3097 3095 3093 3091 3089 3087 3086 3084 3083 3081 3080 3078 3077 3076 3073 3071 3069 3067 3065 3064 3062 3060 3060 3059 3056 3053 3051 3049 3047 3046 3045 3045 3044 3042 3041 3039 3038 3035 3033 3032 3030 3028 3027 3025 3023 3021 3020 3017
3108 3108 3109 3109 3111 3112 3112 3113 3113 3113 3113 3112 3112 3111 3110 3110 3109 3108 3107 3106 3105 3103 3101 3099 3097 3095 3093 3091 3089 3088 3086 3085 3083 3082 3081 3079 3077 3075 3074 3073 3071 3069 3066 3064 3062 3060 3059 3058 3056 3055 3052 3050 3047 3044 3042 3041 3040 3040 3038 3035 3034 3034 3033 3030 3028 3026 3024 3022 3020 3018 3016 3013 3011 3009
3106 3106 3107 3108 3109 3109 3110 3110 3110 3110 3110 3109 3109 3108 3107 3107 3106 3106 3105 3103 3102 3100 3098 3096 3094 3092 3090 3089 3087 3085 3084 3083 3081 3079 3078 3076 3075 3073 3071 3070 3069 3066 3063 3061 3059 3058 3057 3055 3053 3050 3048 3046 3044 3041 3039 3037 3036 3036 3035 3031 3027 3026 3026 3025 3022 3020 3018 3015 3013 3012 3009 3006 3004 3001
3104 3105 3106 3107 3107 3107 3107 3107 3107 3107 3106 3106 3105 3105 3104 3104 3104 3103 3102 3101 3099 3097 3095 3093 3091 3090 3088 3087 3085 3083 3082 3080 3078 3076 3074 3073 3072 3070 3068 3067 3066 3064 3062 3059 3057 3055 3054 3052 3050 3047 3045 3043 3041 3039 3037 3034 3032 3031 3030 3027 3023 3021 3020 3019 3017 3015 3012 3009 3006 3005 3002 2999 2996 2993
3103 3104 3104 3104 3104 3104 3104 3104 3104 3103 3103 3103 3102 3102 3101 3101 3100 3100 3099 3097 3096 3094 3092 3090 3089 3087 3086 3084 3083 3081 3079 3077 3075 3073 3071 3069 3068 3066 3065 3063 3062 3061 3060 3058 3056 3053 3051 3049 3047 3045 3042 3040 3038 3036 3034 3032 3029 3026 3024 3023 3020 3017 3016 3014 3011 3009 3007 3003 3000 2997 2994 2991 2989 2985
3102 3102 3102 3101 3101 3101 3101 3101 3100 3100 3100 3100 3099 3099 3098 3098 3097 3096 3095 3094 3093 3091 3090 3088 3086 3085 3083 3082 3080 3078 3076 3074 3072 3070 3068 3066 3065 3063 3061 3060 3058 3057 3056 3055 3053 3051 3048 3046 3044 3042 3040 3037 3035 3033 3030 3027 3026 3024 3021 3018 3015 3013 3012 3010 3006 3004 3001 2997 2992 2989 2986 2983 2980 2976
3100 3099 3099 3098 3098 3098 3098 3097 3097 3096 3096 3096 3096 3096 3095 3094 3093 3092 3091 3090 3089 3088 3086 3085 3084 3082 3080 3079 3077 3075 3073 3071 3069 3067 3065 3063 3062 3060 3058 3057 3055 3054 3052 3051 3049 3047 3045 3043 3041 3039 3037 3035 3033 3031 3027 3023 3022 3021 3018 3014 3011 3008 3006 3004 3002 2999 2996 2991 2986 2981 2976 2973 2971 2967
3097 3097 3096 3096 3095 3095 3095 3094 3094 3093 3093 3093 3093 3092 3091 3090 3090 3089 3088 3087 3086 3085 3084 3083 3082 3080 3078 3076 3074 3072 3071 3069 3067 3065 3063 3061 3059 3057 3056 3054 3053 3051 3049 3047 3046 3044 3042 3040 3037 3035 3034 3032 3031 3030 3027 3023 3019 3017 3014 3011 3008 3005 3002 2999 2997 2994 2990 2986 2981 2974 2968 2963 2961 2958
3095 3094 3094 3093 3092 3092 3092 3091 3091 3090 3090 3090 3089 3088 3087 3087 3086 3085 3085 3084 3083 3082 3081 3080 3078 3076 3075 3073 3071 3070 3068 3067 3065 3063 3061 3059 3057 3055 3054 3052 3050 3049 3047 3044 3042 3040 3038 3036 3034 3032 3030 3028 3026 3026 3025 3022 3018 3014 3010 3007 3004 3001 2997 2994 2991 2989 2985 2981 2976 2969 2961 2955 2951 2948
3092 3091 3091 3090 3090 3089 3089 3088 3088 3087 3087 3087 3086 3085 3084 3084 3083 3082 3081 3080 3080 3078 3077 3075 3074 3072 3071 3070 3069 3067 3066 3064 3062 3061 3059 3057 3055 3053 3052 3050 3048 3046 3045 3043 3040 3038 3036 3034 3031 3029 3027 3024 3022 3020 3020 3019 3017 3013 3008 3003 3000 2997 2993 2988 2985 2983 2980 2975 2970 2963 2956 2948 2943 2939
3089 3089 3088 3088 3087 3086 3086 3085 3085 3084 3084 3083 3082 3082 3081 3080 3079 3078 3077 3076 3075 3074 3073 3072 3071 3070 3069 3068 3066 3065 3063 3062 3060 3058 3057 3055 3053 3052 3050 3048 3046 3044 3043 3041 3038 3036 3034 3031 3029 3027 3024 3022 3019 3016 3014 3014 3013 3011 3007 3001 2996 2992 2989 2984 2980 2976 2972 2968 2963 2957 2950 2943 2936 2931
3086 3086 3085 3084 3083 3083 3082 3082 3081 3081 3080 3079 3078 3077 3077 3076 3076 3075 3074 3073 3072 3071 3070 3070 3069 3068 3067 3065 3064 3062 3061 3059 3058 3056 3054 3053 3051 3050 3048 3046 3044 3042 3041 3039 3037 3034 3032 3030 3028 3025 3022 3020 3017 3014 3011 3009 3008 3007 3004 2999 2994 2989 2985 2980 2975 2970 2966 2961 2955 2949 2944 2938 2931 2926
3083 3083 3082 3081 3080 3080 3079 3078 3078 3077 3077 3076 3075 3074 3074 3074 3073 3072 3071 3070 3070 3069 3069 3068 3067 3066 3065 3063 3062 3060 3058 3057 3055 3054 3052 3051 3049 3048 3046 3044 3042 3040 3038 3037 3035 3033 3031 3028 3026 3023 3021 3018 3015 3013 3010 3007 3005 3004 3002 2998 2993 2987 2982 2977 2971 2965 2960 2955 2949 2942 2936 2930 2926 2921
3080 3079 3078 3078 3077 3077 3076 3075 3075 3074 3074 3074 3073 3073 3072 3072 3071 3070 3069 3068 3068 3067 3067 3066 3065 3064 3063 3061 3060 3058 3056 3055 3053 3052 3050 3049 3047 3046 3044 3042 3040 3038 3037 3035 3033 3031 3029 3026 3024 3021 3019 3016 3014 3011 3008 3006 3003 3001 2999 2996 2992 2987 2981 2976 2970 2963 2956 2950 2943 2936 2930 2924 2920 2917
3077 3076 3075 3075 3074 3073 3073 3072 3072 3072 3072 3071 3071 3070 3070 3069 3068 3067 3067 3066 3066 3065 3065 3064 3063 3062 3061 3059 3057 3056 3054 3053 3051 3050 3049 3047 3045 3044 3042 3041 3039 3037 3035 3033 3031 3029 3026 3024 3022 3020 3018 3015 3012 3009 3007 3003 3000 2997 2995 2992 2989 2985 2981 2976 2970 2963 2955 2947 2939 2932 2925 2919 2915 2912
3073 3073 3072 3071 3071 3070 3070 3070 3069 3069 3069 3069 3068 3068 3067 3067 3066 3065 3065 3064 3064 3063 3063 3062 3061 3060 3058 3057 3055 3054 3052 3051 3050 3048 3047 3045 3044 3042 3041 3039 3038 3036 3034 3032 3030 3027 3025 3023 3021 3019 3016 3014 3010 3007 3004 3001 2998 2994 2991 2988 2984 2981 2978 2974 2970 2964 2956 2948 2939 2932 2925 2918 2911 2908
3069 3069 3068 3067 3067 3067 3067 3067 3067 3066 3066 3066 3066 3066 3065 3064 3064 3063 3063 3062 3061 3061 3060 3060 3059 3057 3056 3054 3053 3051 3050 3049 3048 3046 3045 3044 3042 3041 3039 3038 3036 3034 3032 3030 3028 3026 3024 3022 3020 3017 3015 3012 3009 3006 3002 2999 2995 2992 2988 2984 2981 2977 2973 2970 2966 2962 2956 2948 2939 2932 2926 2919 2912 2907
3066 3066 3065 3065 3065 3065 3065 3064 3064 3064 3064 3064 3064 3063 3063 3062 3061 3060 3060 3059 3059 3058 3058 3057 3056 3055 3053 3052 3051 3049 3048 3047 3046 3044 3043 3042 3041 3039 3038 3036 3035 3033 3031 3029 3027 3025 3023 3021 3018 3016 3014 3011 3008 3004 3001 2997 2993 2990 2986 2982 2978 2974 2970 2966 2961 2957 2952 2946 2939 2930 2923 2917 2912 2907